Location: Great Chart
(51.1333°N, 0.8333°E)
Time: 11:19:14
(UTC+00:00)

CZ-4C R/B - Pass Details

Date: 19 September 2020
Orbit: 626 x 1376 km, 63.4° (Epoch: 30 October)

Event Time Altitude Azimuth Distance (km) Brightness Sun altitude
Exits shadow 00:47:09 37° 346° (NNW) 1,379 3.5 -36.1°
Drops below altitude 10° 00:52:50 10° 43° (NE) 2,847 5.6 -35.9°
Sets 00:55:58 0° 51° (NE) 3,933 6.4 -35.7°
